Jackson, MI

6:14 AM EDT on October 16, 2019 (GMT -0400)
Jackson County-Reynolds

Weather History for KJXN - September, 2019

Change the Weather History Date:

Monday, September 16, 2019

  Actual Average Record
Temperature  
Mean Temperature 69 °F 62 °F  
Max Temperature 77 °F 73 °F 93 °F (1955)
Min Temperature 61 °F 51 °F 33 °F (1996)
Degree Days  
Heating Degree Days 0 5  
Month to date heating degree days 16 49  
Since 1 July heating degree days 29 84  
Cooling Degree Days 4 2  
Month to date cooling degree days 51 43  
Year to date cooling degree days 610 572  
Growing Degree Days 19 (Base 50)    
Moisture  
Dew Point 62 °F    
Average Humidity 84    
Maximum Humidity 97    
Minimum Humidity 60    
Precipitation  
Precipitation 0.00 in 0.12 in 1.72 in (1996)
Month to date precipitation 2.58 1.82  
Year to date precipitation 24.49 22.74  
Sea Level Pressure  
Sea Level Pressure 30.09 in    
Wind  
Wind Speed 1 mph ()    
Max Wind Speed 8 mph    
Max Gust Speed 11 mph    
Visibility 8.3 miles    
Events      
T = Trace of Precipitation, MM = Missing Value Source: Averaged Metar Reports

Daily Weather History Graph

Daily Weather History Graph

Search for Another Location

Airport or City:

Astronomy

Sep. 16, 2019 Rise Set
Actual Time 7:18 AM EDT 7:46 PM EDT
Civil Twilight 6:50 AM EDT 8:14 PM EDT
Nautical Twilight 6:17 AM EDT 8:47 PM EDT
Astronomical Twilight 5:43 AM EDT 9:21 PM EDT
Moon 9:18 PM EDT 9:26 AM EDT
Length of Visible Light 13h 23m
Length of Day
12h 27m
Waning Gibbous, 94% of the Moon is Illuminated
Sep 16
Waning Gibbous
Sep 21
Last Quarter
Sep 28
New
Oct 5
First Quarter
Oct 13
Full

Hourly Weather History & Observations

Time (EDT) Temp. Dew Point Humidity Pressure Visibility Wind Dir Wind Speed Gust Speed Precip Events Conditions
12:56 AM 66.9 °F 62.1 °F 84% 30.04 in 10.0 mi Calm Calm - N/A   Mostly Cloudy
1:56 AM 64.9 °F 62.1 °F 90% 30.04 in 10.0 mi Calm Calm - N/A   Mostly Cloudy
2:56 AM 64.9 °F 62.1 °F 90% 30.04 in 10.0 mi Calm Calm - N/A   Partly Cloudy
3:29 AM 63.0 °F 61.0 °F 93% 30.05 in 1.8 mi Calm Calm - N/A   Scattered Clouds
3:35 AM 63.0 °F 61.0 °F 93% 30.05 in 3.0 mi Calm Calm - N/A   Mostly Cloudy
3:56 AM 63.0 °F 61.0 °F 93% 30.04 in 9.0 mi Calm Calm - N/A   Overcast
4:11 AM 63.0 °F 61.0 °F 93% 30.05 in 1.8 mi Calm Calm - N/A   Mostly Cloudy
4:24 AM 63.0 °F 61.0 °F 93% 30.05 in 3.0 mi Calm Calm - N/A   Mostly Cloudy
4:34 AM 62.1 °F 60.1 °F 93% 30.06 in 1.8 mi Calm Calm - N/A   Scattered Clouds
4:43 AM 62.1 °F 60.1 °F 93% 30.06 in 4.0 mi Calm Calm - N/A   Scattered Clouds
4:54 AM 62.6 °F 60.8 °F 94% 30.06 in 10.0 mi Calm Calm - N/A   Mostly Cloudy
4:56 AM 62.1 °F 60.1 °F 93% 30.05 in 10.0 mi Calm Calm - N/A   Mostly Cloudy
5:30 AM 63.0 °F 61.0 °F 93% 30.06 in 10.0 mi Calm Calm - N/A   Overcast
5:56 AM 63.0 °F 60.1 °F 90% 30.05 in 10.0 mi Calm Calm - N/A   Mostly Cloudy
6:23 AM 61.0 °F 60.1 °F 97% 30.07 in 1.8 mi Calm Calm - N/A   Mostly Cloudy
6:35 AM 62.1 °F 60.1 °F 93% 30.07 in 3.0 mi Calm Calm - N/A   Overcast
6:56 AM 63.0 °F 61.0 °F 93% 30.06 in 8.0 mi Calm Calm - N/A   Overcast
7:56 AM 63.0 °F 61.0 °F 93% 30.08 in 8.0 mi Calm Calm - N/A   Overcast
8:56 AM 68.0 °F 64.0 °F 87% 30.09 in 9.0 mi NNW 4.6 mph - N/A   Overcast
9:56 AM 70.0 °F 64.0 °F 81% 30.11 in 10.0 mi NNE 6.9 mph - N/A   Overcast
10:56 AM 72.0 °F 64.0 °F 76% 30.11 in 10.0 mi North 4.6 mph - N/A   Overcast
11:29 AM 71.1 °F 64.0 °F 78% 30.12 in 10.0 mi North 4.6 mph - N/A   Overcast
11:56 AM 71.1 °F 64.0 °F 78% 30.11 in 10.0 mi NNW 8.1 mph - N/A   Overcast
12:45 PM 71.1 °F 64.0 °F 78% 30.13 in 10.0 mi North 5.8 mph - N/A   Overcast
12:56 PM 70.0 °F 64.0 °F 81% 30.12 in 10.0 mi Calm Calm - N/A   Overcast
1:19 PM 72.0 °F 64.0 °F 76% 30.12 in 10.0 mi NNE 3.5 mph - N/A   Overcast
1:32 PM 73.0 °F 64.0 °F 73% 30.12 in 10.0 mi NE 3.5 mph - N/A   Overcast
1:56 PM 73.9 °F 64.0 °F 71% 30.11 in 10.0 mi Calm Calm - N/A   Overcast
2:17 PM 73.0 °F 64.0 °F 73% 30.12 in 10.0 mi NNW 5.8 mph - N/A   Overcast
2:56 PM 73.0 °F 64.0 °F 73% 30.11 in 10.0 mi NNW 4.6 mph - N/A   Overcast
3:56 PM 73.9 °F 63.0 °F 68% 30.10 in 10.0 mi WNW 5.8 mph - N/A   Overcast
4:56 PM 75.9 °F 63.0 °F 64% 30.09 in 10.0 mi NNW 6.9 mph - N/A   Clear
5:56 PM 77.0 °F 63.0 °F 62% 30.09 in 10.0 mi WNW 4.6 mph - N/A   Scattered Clouds
6:56 PM 73.9 °F 62.1 °F 66% 30.10 in 10.0 mi North 4.6 mph - N/A   Partly Cloudy
7:56 PM 72.0 °F 60.1 °F 66% 30.10 in 10.0 mi NNW 3.5 mph - N/A   Clear
8:56 PM 64.0 °F 61.0 °F 90% 30.12 in 10.0 mi Calm Calm - N/A   Clear
9:56 PM 66.9 °F 61.0 °F 81% 30.13 in 10.0 mi Calm Calm - N/A   Clear
10:56 PM 66.0 °F 61.0 °F 84% 30.14 in 10.0 mi NNE 4.6 mph - N/A   Clear
11:56 PM 63.0 °F 60.1 °F 90% 30.13 in 10.0 mi ENE 5.8 mph - N/A   Clear